map of MQF home
Great Circle Mapper logo
MQF - Airport
Location
City:  Magnitogorsk, Chelyabinsk, Russian Federation (Russia)
ICAO / IATA:USCM / MQF

Details
Type:Airport (Aerodrome, Airfield)
Use:Public/Civil
Latitude:5323'35"N (53.393131)
Longitude:5845'20"E (58.755661)
Datum:WGS 1984
Elevation:1431 ft (436 m)
Variation:12.30E (WMM2015 magnetic declination)
0.08 annual change
Runways:1
Longest:10663 × 148 ft (3250 × 45 m), paved

Time
Time Zone:UTC+5 (DST+6)

Weather
METAR:USCM 270330Z VRB02MPS 9999 FEW100 M07/M11 Q1035 NOSIG 01090060 RMK QFE737

Related Locations
Nearby:
Farthest:IPC: 10522 mi / 16934 km
Easter Island (Isla de Pascua, Rapa Nui) [Mataveri Intl], VS, CL

Find:

   beyond  
but within

Other Information
Maps:
NOTAMs:
Links:
Sources:

  
flag of Russian Federation (Russia)   

Sectional Chart

Flight Planning
at skyvector.com

Satellite Image

Google Maps Satellite View

 

Copyright © 2004-2015 Karl L. Swartz. All rights reserved.
The Great Circle Mapper name and logo are trademarks of the Great Circle Mapper.
All other trademarks mentioned herein belong to their respective owners.
Please see credits for attibutions and further copyright information.

  Follow gcmap on Facebook Follow gcmap on Twitter Follow gcmap on Google+

hCard Microformat

Geo Microformat